Dati Storici

Data ora Umidita' aria (%) Temperatura aria (°C) Rad globale (W/m²) Gonioanemometro (°) Tacoanemometro (m/s) Pioggia (mm)
25-06-2020 21:30 71.9 % 20.53 16.837 3.382 0 0
25-06-2020 21:20 71.7 % 20.538 338.155 4.213 0 0
25-06-2020 21:10 71.1 % 20.712 -60.601 0.871 0 0
25-06-2020 21:00 70.3 % 20.831 -52.498 3.652 0 0
25-06-2020 20:50 69.4 % 20.954 -66.648 2.953 0 0
25-06-2020 20:40 68.8 % 21.084 -59.178 5.171 0 0
25-06-2020 20:30 69.8 % 21.283 -40.22 3.196 0 0
25-06-2020 20:20 69.8 % 21.345 34.198 0.797 0 0
25-06-2020 20:10 69.8 % 21.357 35.302 4.176 0 0
25-06-2020 20:00 69.3 % 21.47 14.403 5.467 0 0
25-06-2020 19:50 69.1 % 21.736 14.535 2.01 0 0
25-06-2020 19:40 68.5 % 22.047 20.866 2.955 0 0
25-06-2020 19:30 67.4 % 22.288 17.246 2.075 0 0
25-06-2020 19:20 67 % 22.582 13.571 1.618 0 0
25-06-2020 19:10 65.4 % 22.679 37.435 3.363 0 0
25-06-2020 19:00 64.7 % 22.848 30.531 4.004 0 0
25-06-2020 18:50 64.1 % 23.322 30.639 3.733 0 0
25-06-2020 18:40 63.2 % 23.613 25.707 2.149 0 0
25-06-2020 18:30 61.1 % 24.263 15.571 5.613 0 0
25-06-2020 18:20 59.9 % 24.392 28.71 2.412 0 0

I dati sono presentati in modo automatico a scopo informativo. In seguito a verifica i dati possono subire modifiche o essere invalidati e non riportati negli archivi definitivi.